TUA641 UTAA-VTBS

Flight info

Callsign TUA641
Flight time N/A
Altitude 35000
Route KEMOR A125 NINOP A909 LEMOD N644 REGET J145 DI A466 SULOM M890 LKN/N0496F370 R460 CEA L507 IGONI
Aircraft B77W/H-SDE1E2E3FGHIJ2J3J4J5M1RWXY/LB1D1

Departure

Time N/A
Airport Ashgabat International Airport (UTAA)

Arrival

Time 2026-05-07 18:39
Airport Suvarnabhumi Airport (VTBS)
Time Latitude Longitude Altitude Speed Heading
2026-05-07 17:51 16.97141 96.98780 34859 ft 519 kts 128°
2026-05-07 17:51 16.94933 97.01776 34860 ft 518 kts 128°
2026-05-07 17:51 16.90529 97.07718 34859 ft 517 kts 128°
2026-05-07 17:52 16.86103 97.13666 34860 ft 517 kts 128°
2026-05-07 17:52 16.81700 97.19575 34858 ft 516 kts 128°
2026-05-07 17:53 16.77305 97.25471 34861 ft 516 kts 128°
2026-05-07 17:53 16.72890 97.31391 34859 ft 515 kts 128°
2026-05-07 17:54 16.70738 97.34275 34862 ft 515 kts 128°
2026-05-07 17:54 16.69334 97.36155 34862 ft 515 kts 128°
2026-05-07 17:55 16.64939 97.42039 34861 ft 515 kts 128°
2026-05-07 17:55 16.60540 97.47922 34861 ft 515 kts 128°
2026-05-07 17:56 16.56116 97.53836 34859 ft 515 kts 128°
2026-05-07 17:56 16.51742 97.59677 34863 ft 514 kts 128°
2026-05-07 17:57 16.48060 97.64590 34863 ft 514 kts 128°
2026-05-07 17:57 16.42932 97.71429 34863 ft 514 kts 128°
2026-05-07 17:58 16.38542 97.77272 34861 ft 513 kts 128°
2026-05-07 17:58 16.33584 97.82663 34856 ft 513 kts 139°
2026-05-07 17:59 16.28165 97.87475 34864 ft 513 kts 139°
2026-05-07 17:59 16.22735 97.92280 34867 ft 513 kts 139°
2026-05-07 18:00 16.17306 97.97139 34869 ft 514 kts 139°
2026-05-07 18:00 16.12189 98.01743 34868 ft 514 kts 139°
2026-05-07 18:01 16.06767 98.06620 34865 ft 514 kts 139°
2026-05-07 18:01 16.01343 98.11492 34882 ft 514 kts 139°
2026-05-07 18:02 15.93233 98.18766 34875 ft 515 kts 139°
2026-05-07 18:03 15.87793 98.23641 34880 ft 514 kts 139°
2026-05-07 18:03 15.82390 98.28480 34888 ft 514 kts 139°
2026-05-07 18:04 15.76982 98.33320 34891 ft 514 kts 139°
2026-05-07 18:04 15.71562 98.38166 34896 ft 514 kts 139°
2026-05-07 18:05 15.66161 98.42992 34902 ft 514 kts 138°
2026-05-07 18:05 15.60749 98.47826 34913 ft 514 kts 138°
2026-05-07 18:06 15.55323 98.52669 34914 ft 513 kts 139°
2026-05-07 18:06 15.49917 98.57496 34920 ft 513 kts 137°
2026-05-07 18:07 15.45010 98.62828 34925 ft 511 kts 128°
2026-05-07 18:07 15.40593 98.68559 34937 ft 511 kts 128°
2026-05-07 18:08 15.36145 98.74334 34933 ft 509 kts 128°
2026-05-07 18:08 15.33942 98.77166 34920 ft 498 kts 128°
2026-05-07 18:08 15.31807 98.79898 34926 ft 493 kts 128°
2026-05-07 18:09 15.29448 98.82907 34934 ft 494 kts 128°
2026-05-07 18:09 15.29092 98.83362 34931 ft 494 kts 128°
2026-05-07 18:10 15.24783 98.88851 34937 ft 492 kts 128°
2026-05-07 18:10 15.20483 98.94329 34934 ft 491 kts 128°
2026-05-07 18:11 15.16168 98.99824 34930 ft 490 kts 128°
2026-05-07 18:11 15.11889 99.05271 34933 ft 490 kts 128°
2026-05-07 18:12 15.08294 99.09844 34928 ft 491 kts 128°
2026-05-07 18:12 15.03978 99.15331 34925 ft 490 kts 128°
2026-05-07 18:12 15.01116 99.18966 34427 ft 493 kts 128°
2026-05-07 18:13 14.99676 99.20795 34107 ft 491 kts 128°
2026-05-07 18:13 14.97513 99.23541 33571 ft 488 kts 128°
2026-05-07 18:13 14.95393 99.26231 33042 ft 484 kts 128°
2026-05-07 18:13 14.92579 99.29801 32391 ft 479 kts 128°
2026-05-07 18:14 14.91161 99.31599 32049 ft 476 kts 128°
2026-05-07 18:14 14.89074 99.34247 31564 ft 472 kts 127°
2026-05-07 18:14 14.87028 99.36840 31084 ft 469 kts 127°
2026-05-07 18:14 14.84964 99.39455 30587 ft 466 kts 127°
2026-05-07 18:15 14.82934 99.42021 30101 ft 464 kts 127°
2026-05-07 18:15 14.80896 99.44592 29567 ft 460 kts 127°
2026-05-07 18:15 14.78862 99.47157 29040 ft 456 kts 127°
2026-05-07 18:15 14.76857 99.49686 28527 ft 452 kts 128°
2026-05-07 18:16 14.74889 99.52167 28052 ft 448 kts 128°
2026-05-07 18:16 14.72914 99.54658 27566 ft 444 kts 128°
2026-05-07 18:16 14.70960 99.57122 27077 ft 441 kts 128°
2026-05-07 18:16 14.69023 99.59564 26612 ft 437 kts 128°
2026-05-07 18:17 14.67126 99.61955 26151 ft 433 kts 128°
2026-05-07 18:17 14.65209 99.64372 25684 ft 430 kts 128°
2026-05-07 18:17 14.63333 99.66736 25206 ft 428 kts 128°
2026-05-07 18:17 14.61451 99.69105 24757 ft 425 kts 128°
2026-05-07 18:18 14.59573 99.71468 24285 ft 423 kts 128°
2026-05-07 18:18 14.57721 99.73800 23824 ft 420 kts 128°
2026-05-07 18:18 14.55859 99.76144 23349 ft 418 kts 128°
2026-05-07 18:18 14.54035 99.78439 22827 ft 416 kts 128°
2026-05-07 18:19 14.52201 99.80744 22380 ft 412 kts 128°
2026-05-07 18:19 14.50407 99.82999 21907 ft 409 kts 129°
2026-05-07 18:19 14.48601 99.85269 21458 ft 405 kts 129°
2026-05-07 18:19 14.46812 99.87519 21008 ft 401 kts 128°
2026-05-07 18:20 14.45249 99.89843 20570 ft 398 kts 119°
2026-05-07 18:20 14.44015 99.92400 20133 ft 394 kts 113°
2026-05-07 18:20 14.43089 99.95052 19705 ft 391 kts 105°
2026-05-07 18:20 14.42440 99.97741 19269 ft 388 kts 104°
2026-05-07 18:21 14.41809 100.00454 18820 ft 386 kts 104°
2026-05-07 18:21 14.41165 100.03151 18385 ft 385 kts 104°
2026-05-07 18:21 14.40512 100.05823 17902 ft 383 kts 105°
2026-05-07 18:21 14.39863 100.08441 17601 ft 376 kts 105°
2026-05-07 18:22 14.39213 100.11036 17309 ft 369 kts 105°
2026-05-07 18:22 14.38790 100.12722 17117 ft 364 kts 105°
2026-05-07 18:22 14.37959 100.16045 16766 ft 355 kts 105°
2026-05-07 18:22 14.37343 100.18508 16503 ft 351 kts 105°
2026-05-07 18:23 14.36739 100.20922 16257 ft 349 kts 105°
2026-05-07 18:23 14.36132 100.23348 16004 ft 347 kts 105°
2026-05-07 18:23 14.35531 100.25752 15752 ft 346 kts 105°
2026-05-07 18:23 14.34936 100.28129 15504 ft 344 kts 105°
2026-05-07 18:24 14.34336 100.30522 15253 ft 343 kts 105°
2026-05-07 18:24 14.33738 100.32908 15007 ft 343 kts 105°
2026-05-07 18:24 14.33141 100.35289 14752 ft 342 kts 105°
2026-05-07 18:24 14.32549 100.37648 14505 ft 342 kts 105°
2026-05-07 18:25 14.31953 100.40025 14246 ft 341 kts 105°
2026-05-07 18:25 14.31358 100.42395 14011 ft 341 kts 105°
2026-05-07 18:25 14.30769 100.44742 13765 ft 341 kts 105°
2026-05-07 18:25 14.30176 100.47101 13486 ft 341 kts 105°
2026-05-07 18:26 14.29578 100.49480 13214 ft 340 kts 105°
2026-05-07 18:26 14.28985 100.51836 12969 ft 339 kts 105°
2026-05-07 18:26 14.28401 100.54160 12715 ft 337 kts 105°
2026-05-07 18:26 14.27811 100.56505 12520 ft 334 kts 105°
2026-05-07 18:27 14.27234 100.58794 12323 ft 332 kts 105°
2026-05-07 18:27 14.26652 100.61102 12089 ft 329 kts 105°
2026-05-07 18:27 14.25762 100.63208 11831 ft 324 kts 126°
2026-05-07 18:27 14.24115 100.64788 11631 ft 325 kts 149°
2026-05-07 18:28 14.22002 100.65635 11411 ft 330 kts 168°
2026-05-07 18:28 14.19725 100.65752 11147 ft 332 kts 188°
2026-05-07 18:28 14.17504 100.65207 10921 ft 325 kts 194°
2026-05-07 18:28 14.15311 100.64592 10484 ft 326 kts 194°
2026-05-07 18:29 14.14784 100.64444 10412 ft 326 kts 194°
2026-05-07 18:29 14.12852 100.63905 10110 ft 324 kts 193°
2026-05-07 18:29 14.10697 100.63318 9764 ft 322 kts 193°
2026-05-07 18:29 14.08555 100.62748 9369 ft 311 kts 193°
2026-05-07 18:30 14.06489 100.62203 8820 ft 304 kts 193°
2026-05-07 18:30 14.04459 100.61670 8208 ft 296 kts 193°
2026-05-07 18:30 14.02489 100.61304 7619 ft 285 kts 177°
2026-05-07 18:30 14.00625 100.61788 7036 ft 275 kts 149°
2026-05-07 18:31 13.99186 100.63026 6520 ft 265 kts 129°
2026-05-07 18:31 13.98230 100.64607 5987 ft 257 kts 110°
2026-05-07 18:31 13.97715 100.66341 5455 ft 250 kts 104°
2026-05-07 18:31 13.97296 100.68062 4942 ft 245 kts 104°
2026-05-07 18:32 13.96885 100.69718 4512 ft 238 kts 105°
2026-05-07 18:32 13.96468 100.71357 4129 ft 237 kts 105°
2026-05-07 18:32 13.96053 100.72972 3801 ft 237 kts 105°
2026-05-07 18:32 13.95620 100.74609 3513 ft 235 kts 106°
2026-05-07 18:33 13.95189 100.76226 3230 ft 233 kts 106°
2026-05-07 18:33 13.94766 100.77804 2997 ft 228 kts 106°
2026-05-07 18:33 13.94350 100.79354 2851 ft 218 kts 106°
2026-05-07 18:33 13.93872 100.80812 2829 ft 214 kts 122°
2026-05-07 18:34 13.92791 100.81798 2702 ft 212 kts 160°
2026-05-07 18:34 13.91348 100.81930 2643 ft 209 kts 189°
2026-05-07 18:34 13.89934 100.81608 2589 ft 204 kts 195°
2026-05-07 18:34 13.88613 100.81254 2542 ft 191 kts 195°
2026-05-07 18:35 13.87344 100.80912 2497 ft 185 kts 195°
2026-05-07 18:35 13.86095 100.80578 2500 ft 184 kts 195°
2026-05-07 18:35 13.84864 100.80251 2502 ft 186 kts 195°
2026-05-07 18:35 13.83600 100.79916 2501 ft 188 kts 195°
2026-05-07 18:36 13.82327 100.79579 2505 ft 189 kts 195°
2026-05-07 18:36 13.81039 100.79238 2341 ft 192 kts 194°
2026-05-07 18:36 13.79775 100.78904 2092 ft 182 kts 195°
2026-05-07 18:36 13.78587 100.78590 1863 ft 170 kts 194°
2026-05-07 18:37 13.77486 100.78299 1679 ft 162 kts 194°
2026-05-07 18:37 13.76388 100.78009 1480 ft 163 kts 194°
2026-05-07 18:37 13.75298 100.77720 1255 ft 163 kts 194°
2026-05-07 18:37 13.74213 100.77434 1039 ft 163 kts 194°
2026-05-07 18:38 13.73112 100.77143 835 ft 164 kts 194°
2026-05-07 18:38 13.71996 100.76848 626 ft 167 kts 193°
2026-05-07 18:38 13.70875 100.76563 331 ft 168 kts 194°
2026-05-07 18:38 13.69745 100.76253 123 ft 167 kts 193°
2026-05-07 18:39 13.68659 100.75965 28 ft 152 kts 194°
2026-05-07 18:39 13.67751 100.75736 16 ft 109 kts 194°
2026-05-07 18:39 13.67192 100.75586 18 ft 56 kts 194°
2026-05-07 18:39 13.66954 100.75522 18 ft 29 kts 197°
2026-05-07 18:40 13.66773 100.75439 26 ft 29 kts 213°
2026-05-07 18:40 13.66687 100.75367 18 ft 11 kts 223°
2026-05-07 18:40 13.66647 100.75307 18 ft 9 kts 266°
2026-05-07 18:40 13.66691 100.75269 17 ft 9 kts 353°
2026-05-07 18:41 13.66753 100.75278 17 ft 9 kts 12°
2026-05-07 18:41 13.66815 100.75293 17 ft 9 kts 14°
2026-05-07 18:41 13.66877 100.75309 17 ft 9 kts 14°
2026-05-07 18:41 13.66956 100.75331 17 ft 15 kts 15°
2026-05-07 18:42 13.67071 100.75361 18 ft 18 kts 14°
2026-05-07 18:42 13.67190 100.75392 18 ft 18 kts 14°
2026-05-07 18:42 13.67309 100.75423 18 ft 18 kts 14°
2026-05-07 18:42 13.67426 100.75453 18 ft 18 kts 14°
2026-05-07 18:43 13.67545 100.75484 18 ft 18 kts 14°
2026-05-07 18:43 13.67659 100.75514 18 ft 14 kts 14°
2026-05-07 18:43 13.67742 100.75517 18 ft 12 kts 328°
2026-05-07 18:43 13.67780 100.75439 18 ft 12 kts 285°
2026-05-07 18:44 13.67802 100.75355 18 ft 12 kts 285°
2026-05-07 18:44 13.67824 100.75268 18 ft 13 kts 284°
2026-05-07 18:44 13.67850 100.75162 18 ft 17 kts 284°
2026-05-07 18:44 13.67878 100.75048 18 ft 17 kts 284°
2026-05-07 18:45 13.67907 100.74934 18 ft 17 kts 285°
2026-05-07 18:45 13.67936 100.74819 18 ft 17 kts 284°
2026-05-07 18:45 13.67965 100.74704 18 ft 17 kts 284°
2026-05-07 18:45 13.67994 100.74589 18 ft 17 kts 284°
2026-05-07 18:46 13.68022 100.74476 18 ft 17 kts 284°
2026-05-07 18:46 13.68051 100.74360 18 ft 17 kts 284°
2026-05-07 18:46 13.68079 100.74247 18 ft 17 kts 284°
2026-05-07 18:46 13.68108 100.74132 18 ft 17 kts 284°
2026-05-07 18:47 13.68125 100.74064 18 ft 7 kts 288°
2026-05-07 18:47 13.68164 100.74037 18 ft 7 kts 354°
2026-05-07 18:47 13.68224 100.74048 18 ft 12 kts 13°
2026-05-07 18:47 13.68305 100.74068 18 ft 12 kts 14°
2026-05-07 18:48 13.68392 100.74091 18 ft 14 kts 14°
2026-05-07 18:48 13.68496 100.74118 18 ft 17 kts 14°
2026-05-07 18:48 13.68597 100.74145 18 ft 13 kts 14°
2026-05-07 18:48 13.68687 100.74169 18 ft 13 kts 14°
2026-05-07 18:49 13.68757 100.74188 18 ft 10 kts 14°
2026-05-07 18:49 13.68794 100.74217 18 ft 6 kts 73°
2026-05-07 18:49 13.68796 100.74262 18 ft 6 kts 91°
2026-05-07 18:49 13.68791 100.74309 18 ft 6 kts 99°
2026-05-07 18:50 13.68785 100.74354 18 ft 6 kts 89°
2026-05-07 18:50 13.68823 100.74399 18 ft 11 kts 26°
2026-05-07 18:50 13.68898 100.74424 18 ft 11 kts 14°
2026-05-07 18:50 13.68966 100.74442 18 ft 4 kts 14°
2026-05-07 18:51 13.68993 100.74452 18 ft 4 kts 35°
2026-05-07 18:51 13.69003 100.74483 18 ft 5 kts 86°
2026-05-07 18:51 13.68999 100.74516 18 ft 4 kts 101°
2026-05-07 18:51 13.68993 100.74544 18 ft 2 kts 103°
2026-05-07 18:52 13.68992 100.74547 18 ft 0 kts 103°